Miscellaneous Local Product
Issued by NWS North Platte, NE

Home | Current Version | Previous Version | Graphics & Text | Print | Product List | Glossary On
Versions: 1 2 3 4 5 6 7 8 9 10 11 12 13 14 15 16 17 18 19 20 21 22 23 24 25 26 27 28 29 30 31 32 33 34 35 36 37 38 39 40 41 42 43 44 45 46 47 48 49 50
000
AXUS43 KLBF 270310
MISLBF


WESTERN AND NORTH CENTRAL NEBRASKA HOURLY WEATHER ROUNDUP
NATIONAL WEATHER SERVICE NORTH PLATTE NE
1000 PM CDT MON SEP 26 2016

NOTE: "FAIR" INDICATES FEW OR NO CLOUDS BELOW 12,000 FEET WITH NO
SIGNIFICANT WEATHER AND/OR OBSTRUCTIONS TO VISIBILITY.

NOTE: STATIONS NOT REPORTING VARIABLES SUCH AS SKY/WEATHER OR
PRESSURE ARE PROVIDED BY RAWS AND APRS NETWORKS AND ARE NOT UNDER
NATIONAL WEATHER SERVICE QUALITY CONTROL.

...OBSERVATIONS IN AND NEAR THE EASTERN PANHANDLE OF NEBRASKA...

CITY           SKY/WX    TMP DP  RH WIND       PRES   REMARKS
PINE RIDGE     CLEAR     51  39  63 VRB3      30.23R
CHADRON        CLOUDY    55  42  61 CALM      30.23S
ALLIANCE       CLEAR     47  41  80 W9        30.24S
SIDNEY         CLEAR     52  39  61 W3        30.29R
CRESCENT LAKE    N/A     58  42  56 NW6         N/A
$$

...OBSERVATIONS IN NORTHERN NEBRASKA AND FAR SOUTHERN SOUTH DAKOTA...

CITY           SKY/WX    TMP DP  RH WIND       PRES   REMARKS
WINNER         FAIR      54  42  64 W6        30.13R
VALENTINE      CLEAR     56  37  49 NW8       30.17R
THEDFORD       CLEAR     53  41  63 CALM      30.20R
AINSWORTH      CLEAR     55  42  63 W6        30.15S
O`NEILL        CLEAR     56  42  58 W5        30.12S
ORD            CLEAR     51  42  71 CALM      30.13R
BROKEN BOW     CLEAR     48  41  76 CALM      30.16R
VALENTINE NWR    N/A     55  41  59 NW6         N/A
BUTTE            N/A     60  41  49 W3          N/A
HALSEY           N/A     60  38  45 CALM        N/A
EWING            N/A     53  44  71 CALM        N/A
$$

...OBSERVATIONS IN SOUTHWEST NEBRASKA AND FAR NORTHEAST COLORADO...

CITY           SKY/WX    TMP DP  RH WIND       PRES   REMARKS
HOLYOKE        FAIR      54  41  62 W6        30.25S
IMPERIAL       CLEAR     57  41  55 W3        30.22S
OGALLALA       CLEAR     56  43  61 CALM      30.22S
NORTH PLATTE   CLEAR     52  42  69 CALM      30.19R
MCCOOK         CLEAR     60  45  57 W5        30.18S
LEXINGTON      CLEAR     53  45  73 CALM      30.17S HAZE
STAPLETON        N/A     58  40  52 CALM        N/A
GOTHENBURG       N/A     61  43  51 CALM        N/A
CALLAWAY         N/A     49  45  86 CALM        N/A
$$

...OBSERVATIONS IN CENTRAL LINCOLN COUNTY AREA...

CITY           SKY/WX    TMP DP  RH WIND       PRES   REMARKS
N.P. AIRPORT   CLEAR     52  42  69 CALM      30.19R
N.P. DOWNTOWN    N/A     58  48  70 CALM        N/A
N.P. SOUTHEAST   N/A     59  46  63 CALM        N/A
N.P. HILLCREST   N/A     63  42  45 NE3         N/A
$$

...SOME OBSERVATIONS FROM AROUND THE REGION...

CITY           SKY/WX    TMP DP  RH WIND       PRES   REMARKS
DENVER         CLEAR     60  28  29 SE6       30.32S
LARAMIE        CLEAR     51  37  58 NE5       30.42R
CHEYENNE       CLEAR     56  38  50 NE5       30.38R
SCOTTSBLUFF    CLEAR     55  44  66 N5        30.26S
RAPID CITY     CLEAR     49  40  71 W7        30.20S
BISMARCK       CLEAR     52  38  58 W3        30.08S
PIERRE         CLEAR     55  37  50 N8        30.10S
SIOUX FALLS    CLEAR     54  37  52 W8        30.04S
OMAHA          CLEAR     60  48  64 CALM      30.08S
GRAND ISLAND   CLEAR     56  44  64 CALM      30.14S
KANSAS CITY    CLEAR     58  46  64 SW6       30.12S
WICHITA        CLEAR     58  49  72 SW6       30.18F
OKLAHOMA CITY  CLOUDY    62  46  55 NW5       30.20R
DALLAS         CLOUDY    68  60  75 N7        30.14S
AMARILLO       CLEAR     56  38  50 SE8       30.30R
DODGE CITY     CLEAR     59  39  47 S8        30.20S
HAYS           CLEAR     57  39  51 CALM      30.18S
GOODLAND       CLEAR     55  40  56 CALM      30.24S
$$




USA.gov is the U.S. government's official web portal to all federal, state and local government web resources and services.